Location: Kershaw
(34.5481°N, 80.5823°W)
Time: 20:49:40
(UTC+00:00)

Vanguard 2 Rocket - Pass Details

Date: 02 October 2022
Orbit: 555 x 3321 km, 32.9° (Epoch: 28 November)

Event Time Altitude Azimuth Distance (km) Brightness Sun altitude
Rises 23:15:45 0° 184° (S) 7,276 11.6 -3.1°
Reaches altitude 10° 23:26:02 10° 160° (SSE) 6,191 10.9 -5.2°
Maximum altitude 23:32:17 12° 141° (SE) 5,782 10.6 -6.5°
Drops below altitude 10° 23:38:03 10° 121° (ESE) 5,685 10.4 -7.6°
Enters shadow 23:41:46 - 109° (ESE) 5,797 10.4 -8.4°
